STARLINK-33633 (63382 NORAD) Tracking and Keplerian Element Data

This shows tracking and keplerian element data for the satellite.

Feedback or suggestion? Click here.




ElementValue
Catalog63382
NameSTARLINK-33633
Epoch Orbit4259
Epoch Day354.20031008
Epoch Year2025
RAAN57.8331
Inclination53.1614
Eccentricity0.0002455
Argument of Perigee34.8124
Mean Anonmoly325.304
Mean Motion15.3557071
Decay Rate0.00025648
L11 63382U 25063V 25354.20031008 .00025648 00000+0 73962-3 0 9995
L22 63382 53.1614 57.8331 0002455 34.8124 325.3040 15.35570710 42590



Live tracking and technical data element details for STARLINK-33633 (NORAD 63382). STARLINK-33633 can be tracked NOW for your location showing map with azimuth and elevation plus other details from your city location.







IsCatalogInMostPopularTable: catalog: 63382, numindb: 1
Update: records affected: 1



GetName: 63382 STARLINK-33633

Hit Count: updated at: Tue, 10 Feb 2026 02:38:04 GMT